Time,TemperatureF,DewpointF,PressureIn,WindDirection,WindDirectionDegrees,WindSpeedMPH,WindSpeedGustMPH,Humidity,HourlyPrecipIn,Conditions,Clouds,dailyrainin,SoftwareType,DateUTC
2013-09-02 00:01:00,82.1,76.2,29.92,SW,225,2.0,3.4,82,0.00,,,0.00,WUHU216HW,2013-09-02 04:01:00,
2013-09-02 00:06:00,82.1,76.2,29.92,WSW,248,1.8,2.9,82,0.00,,,0.00,WUHU216HW,2013-09-02 04:06:00,
2013-09-02 00:11:00,82.1,76.2,29.92,SW,225,1.8,2.2,82,0.00,,,0.00,WUHU216HW,2013-09-02 04:11:00,
2013-09-02 00:16:00,81.9,76.0,29.92,WSW,248,0.7,3.6,82,0.00,,,0.00,WUHU216HW,2013-09-02 04:16:00,
2013-09-02 00:21:00,82.1,76.2,29.92,WSW,248,3.8,3.8,82,0.00,,,0.00,WUHU216HW,2013-09-02 04:21:00,
2013-09-02 00:26:00,81.9,76.0,29.92,SW,225,2.9,3.8,82,0.00,,,0.00,WUHU216HW,2013-09-02 04:26:00,
2013-09-02 00:31:00,81.9,76.0,29.92,WSW,248,2.5,3.8,82,0.00,,,0.00,WUHU216HW,2013-09-02 04:31:00,
2013-09-02 00:36:00,81.9,76.0,29.92,WSW,248,0.7,2.9,82,0.00,,,0.00,WUHU216HW,2013-09-02 04:36:00,
2013-09-02 00:41:00,81.9,76.0,29.92,WSW,248,1.6,2.5,82,0.00,,,0.00,WUHU216HW,2013-09-02 04:41:00,
2013-09-02 00:46:00,81.9,76.0,29.92,WSW,248,1.1,2.5,82,0.00,,,0.00,WUHU216HW,2013-09-02 04:46:00,
2013-09-02 00:51:00,81.9,76.0,29.92,SW,225,1.8,3.1,82,0.00,,,0.00,WUHU216HW,2013-09-02 04:51:00,
2013-09-02 00:56:00,81.9,76.0,29.92,WSW,248,2.0,3.1,82,0.00,,,0.00,WUHU216HW,2013-09-02 04:56:00,
2013-09-02 01:01:00,82.1,76.4,29.91,SW,225,2.0,3.8,83,0.00,,,0.00,WUHU216HW,2013-09-02 05:01:00,
2013-09-02 01:06:00,82.1,76.4,29.92,West,270,2.0,3.8,83,0.00,,,0.00,WUHU216HW,2013-09-02 05:06:00,
2013-09-02 01:11:00,82.1,76.4,29.92,WSW,248,1.3,2.5,83,0.00,,,0.00,WUHU216HW,2013-09-02 05:11:00,
2013-09-02 01:16:00,82.1,76.4,29.91,WSW,248,3.1,4.3,83,0.00,,,0.00,WUHU216HW,2013-09-02 05:16:00,
2013-09-02 01:21:00,82.1,76.4,29.91,WSW,248,1.8,4.3,83,0.00,,,0.00,WUHU216HW,2013-09-02 05:21:00,
2013-09-02 01:26:00,82.1,76.4,29.91,SW,225,3.6,4.0,83,0.00,,,0.00,WUHU216HW,2013-09-02 05:26:00,
2013-09-02 01:31:00,82.1,76.4,29.91,WSW,248,1.3,3.8,83,0.00,,,0.00,WUHU216HW,2013-09-02 05:31:00,
2013-09-02 01:36:00,82.1,76.4,29.91,WSW,248,2.7,3.6,83,0.00,,,0.00,WUHU216HW,2013-09-02 05:36:00,
2013-09-02 01:41:00,82.1,76.4,29.90,West,270,1.8,3.4,83,0.00,,,0.00,WUHU216HW,2013-09-02 05:41:00,
2013-09-02 01:46:00,82.3,76.6,29.90,WSW,248,1.8,4.7,83,0.00,,,0.00,WUHU216HW,2013-09-02 05:46:00,
2013-09-02 01:51:00,82.3,76.6,29.90,WSW,248,0.9,4.7,83,0.00,,,0.00,WUHU216HW,2013-09-02 05:51:00,
2013-09-02 01:56:00,82.3,76.6,29.90,WSW,248,2.5,2.7,83,0.00,,,0.00,WUHU216HW,2013-09-02 05:56:00,
2013-09-02 02:01:00,82.3,76.6,29.90,SW,225,1.1,2.7,83,0.00,,,0.00,WUHU216HW,2013-09-02 06:01:00,
2013-09-02 02:06:00,82.3,76.6,29.90,WSW,248,1.8,2.7,83,0.00,,,0.00,WUHU216HW,2013-09-02 06:06:00,
2013-09-02 02:11:00,82.3,76.6,29.90,WSW,248,2.5,2.7,83,0.00,,,0.00,WUHU216HW,2013-09-02 06:11:00,
2013-09-02 02:16:00,82.3,76.6,29.90,WSW,248,1.3,2.7,83,0.00,,,0.00,WUHU216HW,2013-09-02 06:16:00,
2013-09-02 02:21:00,82.3,76.6,29.90,WSW,248,2.2,2.7,83,0.00,,,0.00,WUHU216HW,2013-09-02 06:21:00,
2013-09-02 02:26:00,82.3,76.6,29.90,WSW,248,4.3,4.3,83,0.00,,,0.00,WUHU216HW,2013-09-02 06:26:00,
2013-09-02 02:31:00,82.3,76.6,29.89,WSW,248,2.2,4.3,83,0.00,,,0.00,WUHU216HW,2013-09-02 06:31:00,
2013-09-02 02:36:00,82.3,76.6,29.89,West,270,3.8,4.3,83,0.00,,,0.00,WUHU216HW,2013-09-02 06:36:00,
2013-09-02 02:41:00,82.3,77.0,29.89,WSW,248,2.0,4.0,84,0.00,,,0.00,WUHU216HW,2013-09-02 06:41:00,
2013-09-02 02:46:00,82.3,77.0,29.89,WSW,248,1.3,4.0,84,0.00,,,0.00,WUHU216HW,2013-09-02 06:46:00,
2013-09-02 02:51:00,82.3,77.0,29.89,SW,225,2.2,3.6,84,0.00,,,0.00,WUHU216HW,2013-09-02 06:51:00,
2013-09-02 02:56:00,82.3,77.0,29.89,SW,225,2.7,4.0,84,0.00,,,0.00,WUHU216HW,2013-09-02 06:56:00,
2013-09-02 03:01:00,82.3,77.0,29.89,WNW,293,1.3,4.0,84,0.00,,,0.00,WUHU216HW,2013-09-02 07:01:00,
2013-09-02 03:06:00,82.3,77.0,29.89,SW,225,2.2,2.5,84,0.00,,,0.00,WUHU216HW,2013-09-02 07:06:00,
2013-09-02 03:11:00,82.1,76.4,29.88,SW,225,2.0,3.1,83,0.00,,,0.00,WUHU216HW,2013-09-02 07:11:00,
2013-09-02 03:16:00,82.1,76.4,29.89,WSW,248,1.1,3.4,83,0.00,,,0.00,WUHU216HW,2013-09-02 07:16:00,
2013-09-02 03:21:00,82.1,76.4,29.88,SW,225,0.4,3.4,83,0.00,,,0.00,WUHU216HW,2013-09-02 07:21:00,
2013-09-02 03:26:00,82.1,76.4,29.88,WSW,248,1.1,4.0,83,0.00,,,0.00,WUHU216HW,2013-09-02 07:26:00,
2013-09-02 03:31:00,82.1,76.4,29.88,WSW,248,0.9,4.0,83,0.00,,,0.00,WUHU216HW,2013-09-02 07:31:00,
2013-09-02 03:36:00,82.1,76.4,29.88,WSW,248,1.1,2.9,83,0.00,,,0.00,WUHU216HW,2013-09-02 07:36:00,
2013-09-02 03:41:00,82.1,76.4,29.88,SW,225,0.9,2.2,83,0.00,,,0.00,WUHU216HW,2013-09-02 07:41:00,
2013-09-02 03:46:00,82.1,76.4,29.88,SW,225,1.8,3.8,83,0.00,,,0.00,WUHU216HW,2013-09-02 07:46:00,
2013-09-02 03:51:00,82.1,76.8,29.88,WSW,248,1.1,3.8,84,0.00,,,0.00,WUHU216HW,2013-09-02 07:51:00,
2013-09-02 03:56:00,82.1,76.8,29.88,SW,225,1.3,3.1,84,0.00,,,0.00,WUHU216HW,2013-09-02 07:56:00,
2013-09-02 04:01:00,82.1,76.8,29.88,WSW,248,1.1,2.7,84,0.00,,,0.00,WUHU216HW,2013-09-02 08:01:00,
2013-09-02 04:06:00,82.1,76.8,29.88,WSW,248,2.5,2.7,84,0.00,,,0.00,WUHU216HW,2013-09-02 08:06:00,
2013-09-02 04:11:00,82.1,76.8,29.88,WSW,248,1.8,2.5,84,0.00,,,0.00,WUHU216HW,2013-09-02 08:11:00,
2013-09-02 04:16:00,82.1,76.8,29.88,SW,225,2.2,2.5,84,0.00,,,0.00,WUHU216HW,2013-09-02 08:16:00,
2013-09-02 04:21:00,82.1,76.8,29.88,WSW,248,2.0,2.2,84,0.00,,,0.00,WUHU216HW,2013-09-02 08:21:00,
2013-09-02 04:26:00,82.3,77.0,29.88,WSW,248,1.3,2.5,84,0.00,,,0.00,WUHU216HW,2013-09-02 08:26:00,
2013-09-02 04:31:00,82.3,77.0,29.88,WSW,248,1.1,2.9,84,0.00,,,0.00,WUHU216HW,2013-09-02 08:31:00,
2013-09-02 04:36:00,82.3,77.0,29.88,SW,225,0.9,2.9,84,0.00,,,0.00,WUHU216HW,2013-09-02 08:36:00,
2013-09-02 04:41:00,82.1,76.8,29.88,WSW,248,0.4,2.9,84,0.00,,,0.00,WUHU216HW,2013-09-02 08:41:00,
2013-09-02 04:46:00,82.1,76.8,29.88,SW,225,0.7,2.5,84,0.00,,,0.00,WUHU216HW,2013-09-02 08:46:00,
2013-09-02 04:51:00,82.1,76.8,29.88,West,270,1.1,2.5,84,0.00,,,0.00,WUHU216HW,2013-09-02 08:51:00,
2013-09-02 04:56:00,82.1,76.4,29.88,WSW,248,0.4,2.5,83,0.00,,,0.00,WUHU216HW,2013-09-02 08:56:00,
2013-09-02 05:01:00,81.9,76.2,29.88,WSW,248,0.9,2.5,83,0.00,,,0.00,WUHU216HW,2013-09-02 09:01:00,
2013-09-02 05:06:00,81.7,76.1,29.88,WSW,248,1.3,2.5,83,0.00,,,0.00,WUHU216HW,2013-09-02 09:06:00,
2013-09-02 05:11:00,81.7,75.8,29.88,SW,225,0.4,2.5,82,0.00,,,0.00,WUHU216HW,2013-09-02 09:11:00,
2013-09-02 05:16:00,81.5,75.6,29.88,WSW,248,0.7,1.8,82,0.00,,,0.00,WUHU216HW,2013-09-02 09:16:00,
2013-09-02 05:21:00,81.4,75.4,29.88,WSW,248,0.4,1.8,82,0.00,,,0.00,WUHU216HW,2013-09-02 09:21:00,
2013-09-02 05:26:00,81.4,75.4,29.89,WSW,248,1.3,1.3,82,0.00,,,0.00,WUHU216HW,2013-09-02 09:26:00,
2013-09-02 05:31:00,81.2,74.9,29.89,WSW,248,1.1,1.3,81,0.00,,,0.00,WUHU216HW,2013-09-02 09:31:00,
2013-09-02 05:36:00,81.0,74.7,29.89,WSW,248,0.9,1.8,81,0.00,,,0.00,WUHU216HW,2013-09-02 09:36:00,
2013-09-02 05:41:00,81.0,74.7,29.89,WSW,248,1.3,1.8,81,0.00,,,0.00,WUHU216HW,2013-09-02 09:41:00,
2013-09-02 05:46:00,80.8,74.5,29.89,SW,225,0.4,1.8,81,0.00,,,0.00,WUHU216HW,2013-09-02 09:46:00,
2013-09-02 05:51:00,80.8,74.5,29.89,SW,225,1.3,1.8,81,0.00,,,0.00,WUHU216HW,2013-09-02 09:51:00,
2013-09-02 05:56:00,80.6,74.4,29.89,West,270,0.4,1.8,81,0.00,,,0.00,WUHU216HW,2013-09-02 09:56:00,
2013-09-02 06:01:00,80.6,74.4,29.89,West,270,0.0,1.6,81,0.00,,,0.00,WUHU216HW,2013-09-02 10:01:00,
2013-09-02 06:06:00,80.6,74.4,29.89,WSW,248,0.4,0.4,81,0.00,,,0.00,WUHU216HW,2013-09-02 10:06:00,
2013-09-02 06:11:00,80.5,74.2,29.89,WSW,248,0.4,1.1,81,0.00,,,0.00,WUHU216HW,2013-09-02 10:11:00,
2013-09-02 06:16:00,80.5,74.2,29.89,WSW,248,0.0,1.3,81,0.00,,,0.00,WUHU216HW,2013-09-02 10:16:00,
2013-09-02 06:21:00,80.3,74.0,29.89,WSW,248,0.0,1.3,81,0.00,,,0.00,WUHU216HW,2013-09-02 10:21:00,
2013-09-02 06:26:00,80.3,74.0,29.89,West,270,0.0,0.9,81,0.00,,,0.00,WUHU216HW,2013-09-02 10:26:00,
2013-09-02 06:31:00,80.3,74.0,29.89,SW,225,0.0,0.2,81,0.00,,,0.00,WUHU216HW,2013-09-02 10:31:00,
2013-09-02 06:36:00,80.1,73.8,29.90,WSW,248,0.7,1.1,81,0.00,,,0.00,WUHU216HW,2013-09-02 10:36:00,
2013-09-02 06:41:00,80.1,73.8,29.90,WSW,248,0.4,1.1,81,0.00,,,0.00,WUHU216HW,2013-09-02 10:41:00,
2013-09-02 06:46:00,79.9,73.6,29.90,WSW,248,0.0,1.1,81,0.00,,,0.00,WUHU216HW,2013-09-02 10:46:00,
2013-09-02 06:51:00,79.9,73.6,29.90,WSW,248,1.1,1.1,81,0.00,,,0.00,WUHU216HW,2013-09-02 10:51:00,
2013-09-02 06:56:00,79.7,73.5,29.90,WSW,248,0.2,1.1,81,0.00,,,0.00,WUHU216HW,2013-09-02 10:56:00,
2013-09-02 07:01:00,79.7,73.8,29.90,WSW,248,0.4,1.1,82,0.00,,,0.00,WUHU216HW,2013-09-02 11:01:00,
2013-09-02 07:06:00,79.6,73.6,29.90,West,270,0.2,1.1,82,0.00,,,0.00,WUHU216HW,2013-09-02 11:06:00,
2013-09-02 07:11:00,79.6,73.6,29.90,WSW,248,0.2,1.3,82,0.00,,,0.00,WUHU216HW,2013-09-02 11:11:00,
2013-09-02 07:16:00,79.6,73.6,29.90,WSW,248,0.2,1.3,82,0.00,,,0.00,WUHU216HW,2013-09-02 11:16:00,
2013-09-02 07:21:00,79.6,73.6,29.90,WSW,248,0.9,1.1,82,0.00,,,0.00,WUHU216HW,2013-09-02 11:21:00,
2013-09-02 07:26:00,79.6,73.6,29.90,WSW,248,1.1,1.6,82,0.00,,,0.00,WUHU216HW,2013-09-02 11:26:00,
2013-09-02 07:31:00,79.6,73.6,29.91,WSW,248,1.1,1.6,82,0.00,,,0.00,WUHU216HW,2013-09-02 11:31:00,